[[{"header":{"parameterUnit":"m.s-1","parameterCategory":1,"la1":30.2991,"la2":30.254,"lo1":-89.0895,"lo2":-89.0444,"dy":0.0017,"dx":0.0017,"nx":28,"ny":28,"refTime":"2024-09-04T03:00:00:Z","depth":0,"parameterNumber":2,"parameterNumberName":"U-component_of_WINDS"},"data":[0,0,0,0,0,0,0,0,0,0,0,0,0,0,0,0,0,0,0,0,0,0,0,0,0,0,0,0,0,0,0,0,0,0,0,0,0,0,0,0,0,0,0,0,0,0,0,0,0,0,0,0,0,0,0,0,0,0,-6.8159,-6.8159,0,-6.8135,-6.8135,-6.8135,-6.7902,-6.7896,-6.789,-6.7885,-6.7865,-6.7869,-6.7874,0,0,0,0,0,0,0,0,0,0,0,0,0,-6.8006,-6.801,-6.8159,-6.8159,-6.8158,-6.8135,-6.8135,-6.8134,-6.7903,-6.7896,-6.7889,-6.7882,-6.7863,-6.7869,-6.7875,0,0,0,0,0,0,0,0,0,0,0,0,0,-6.8037,-6.8012,-6.8159,-6.804,-6.8029,-6.8135,-6.8135,-6.8134,-6.7905,-6.7896,-6.7887,-6.7879,-6.7861,-6.7868,-6.7876,-6.8095,0,0,-6.7898,-6.7901,0,0,0,0,0,0,0,0,-6.8035,-6.8043,-6.8058,-6.8048,-6.8036,-6.8012,-6.8073,-6.8121,-6.7907,-6.7952,-6.7885,-6.7875,-6.7921,-6.7923,-6.7938,-6.8094,-6.8093,-6.7899,-6.7903,-6.7906,-6.7908,0,0,0,0,0,0,0,-6.8034,-6.8042,-6.8149,-6.8058,-6.8045,-6.7988,-6.7983,-6.8081,-6.7986,-6.7947,-6.793,-6.7931,-6.7914,-6.7931,-6.7936,-6.8093,-6.7898,-6.7905,-6.7909,-6.7912,-6.8427,-6.8436,0,0,0,0,0,0,-6.8048,-6.8042,-6.815,-6.8149,-6.8014,-6.7998,-6.7992,-6.8029,-6.7984,-6.7969,-6.7938,-6.792,-6.7923,-6.7927,-6.7934,-6.8187,-6.7906,-6.7913,-6.7917,-6.8418,-6.8429,-6.8439,0,0,0,0,0,0,-6.8045,-6.8059,-6.8151,-6.8091,-6.8098,-6.801,-6.8053,-6.8033,-6.805,-6.7977,-6.7959,-6.7974,-6.7916,-6.7924,-6.8056,-6.8184,-6.7916,-6.7923,-6.8407,-6.8422,-6.8434,-6.8697,0,0,0,0,0,0,-6.8042,-6.806,-6.8142,-6.8094,-6.8102,-6.8274,-6.8061,-6.8039,-6.8063,-6.8039,-6.8006,-6.7992,-6.791,-6.8047,-6.8064,-6.8189,-6.7929,-6.8395,-6.8414,-6.843,-6.8677,-6.8718,-6.8754,0,0,0,0,0,-6.8037,-6.8218,-6.8148,-6.8162,-6.8203,-6.8282,-6.8286,-6.8188,-6.8075,-6.8157,-6.8109,-6.7993,-6.8167,-6.8062,-6.8079,-6.8209,-6.8387,-6.8408,-6.8429,-6.866,-6.871,-6.8753,0,0,0,0,0,0,-6.8285,-6.821,-6.8131,-6.8301,-6.83,-6.8242,-6.8343,-6.8245,-6.8276,-6.8252,-6.813,-6.8124,-6.8276,-6.8255,-6.814,-6.8418,-6.8257,-6.8282,-6.8426,-6.8474,-6.8512,-6.8514,-6.7935,0,0,0,0,0,-6.836,-6.8429,-6.8359,-6.8517,-6.852,-6.8433,-6.8463,-6.8387,-6.838,-6.8379,-6.8341,-6.8341,-6.8394,-6.8433,-6.8479,-6.8672,-6.8662,-6.877,-6.8809,-6.8841,-6.8864,-6.8964,-6.9012,-6.8508,-6.8508,-6.8508,0,0,-6.8514,-6.8482,-6.8533,-6.8566,-6.8555,-6.863,-6.8433,-6.8521,-6.8576,-6.8392,-6.8515,-6.8488,-6.8478,-6.8643,-6.8713,-6.863,-6.9001,-6.8867,-6.8893,-6.8899,-6.8991,-6.9039,-6.9081,-6.8522,-6.852,-6.8517,0,0,-6.8834,-6.8817,-6.8945,-6.8939,-6.8924,-6.8864,-6.8896,-6.8853,-6.8827,-6.8948,-6.8811,-6.8875,-6.8971,-6.897,-6.8982,-6.9301,-6.9195,-6.932,-6.9522,-6.9621,-6.9661,-6.9695,-6.9809,-6.9851,-6.9343,-6.9344,-6.9344,0,-6.9029,-6.9135,-6.9024,-6.9121,-6.9139,-6.8975,-6.9104,-6.9103,-6.9107,-6.9123,-6.903,-6.9146,-6.9129,-6.929,-6.9368,-6.9383,-6.9415,-6.9323,-6.9664,-6.9697,-6.9728,-6.9835,-6.9878,-6.9359,-6.9357,-6.9356,-6.9354,0,-6.9375,-6.9451,-6.9557,-6.9562,-6.9592,-6.9705,-6.9612,-6.9656,-6.9577,-6.9528,-6.9652,-6.9625,-6.9662,-6.9694,-6.962,-6.9846,-6.9794,-6.9685,-6.952,-6.9793,-6.9891,-6.9931,-6.9381,-6.9375,-6.9371,-6.9367,0,0,-6.9852,-6.9792,-6.9833,-6.9833,-6.9805,-6.9862,-6.9967,-7.0001,-7.0042,-7.0049,-7.0135,-7.0219,-7.0117,-7.0131,-7.0054,-7.0141,-7.0395,-7.002,-7.0018,-7.0091,-7.0642,-7.0725,-7.0774,-7.0324,-7.0332,-7.0338,-7.0643,0,-7.016,-7.0335,-7.0238,-7.0427,-7.0495,-7.034,-7.0431,-7.0425,-7.0381,-7.0434,-7.0385,-7.0447,-7.0308,-7.0315,-7.0394,-7.0348,-7.0504,-7.0324,-7.0404,-7.0408,-7.0411,-7.0826,-7.0914,-7.1203,-7.0681,-7.0687,-7.0692,0,-7.0543,-7.0564,-7.0761,-7.0717,-7.0743,-7.0827,-7.085,-7.0902,-7.0891,-7.0853,-7.0869,-7.077,-7.0871,-7.0708,-7.0846,-7.0726,-7.0752,-7.0734,-7.0743,-7.0747,-7.0567,-7.0841,-7.1293,-7.1337,-7.0751,-7.0746,-7.0742,0,-7.0871,-7.0949,-7.1076,-7.108,-7.1034,-7.1097,-7.108,-7.106,-7.1087,-7.1108,-7.1124,-7.1158,-7.1176,-7.1205,-7.1118,-7.1008,-7.1268,-7.1098,-7.124,-7.1243,-7.1302,-7.13,-7.1765,-7.132,-7.132,-7.1319,-7.1318,0,-7.1225,-7.1351,-7.1222,-7.1301,-7.1437,-7.1324,-7.1462,-7.1429,-7.1413,-7.1483,-7.135,-7.1419,-7.13,-7.1357,-7.129,-7.1414,-7.1424,-7.1397,-7.1378,-7.1409,-7.1412,-7.1425,-7.1403,-7.133,-7.1328,-7.1325,-7.1323,0,-7.1615,-7.1534,-7.1661,-7.1606,-7.1595,-7.1698,-7.1651,-7.1722,-7.1668,-7.1758,-7.1773,-7.169,-7.175,-7.1666,-7.1718,-7.1673,-7.1843,-7.1794,-7.1847,-7.1833,-7.198,-7.1967,-7.247,-7.253,-7.2047,-7.2052,-7.2056,0,-7.1847,-7.1939,-7.1893,-7.1929,-7.192,-7.1981,-7.2006,-7.1899,-7.1931,-7.1925,-7.1997,-7.2045,-7.2078,-7.2181,-7.2127,-7.2166,-7.2116,-7.2289,-7.2121,-7.2149,-7.2119,-7.2114,-7.2123,-7.2324,-7.233,-7.2335,-7.2339,0,-7.2266,-7.222,-7.2262,-7.229,-7.2324,-7.2341,-7.2348,-7.2386,-7.2273,-7.2316,-7.2375,-7.24,-7.2452,-7.2502,-7.2527,-7.251,-7.2408,-7.2392,-7.2427,-7.246,-7.2487,-7.2474,-7.1941,-7.2381,-7.2377,-7.2374,-7.2371,-7.237,-7.2583,-7.2658,-7.2637,-7.2687,-7.2681,-7.269,-7.2753,-7.2707,-7.2753,-7.2786,-7.272,-7.2795,-7.2781,-7.2803,-7.2798,-7.2856,-7.2781,-7.2832,-7.2845,-7.2859,-7.2881,-7.2478,-7.286,-7.2859,-7.2858,-7.2857,-7.2856,0,-7.2995,-7.2973,-7.3021,-7.3034,-7.3074,-7.297,-7.2973,-7.3014,-7.3081,-7.3076,-7.311,-7.3178,-7.3225,-7.3174,-7.3212,-7.3268,-7.3222,-7.3282,-7.3277,-7.3275,-7.2947,-7.2913,-7.3319,-7.3319,-7.3319,-7.3319,-7.3319,-7.3319,-7.3214,-7.3335,-7.3287,-7.3403,-7.338,-7.3451,-7.3462,-7.347,-7.3465,-7.3546,-7.3584,-7.3549,-7.3526,-7.3561,-7.36,-7.3584,-7.3604,-7.3682,-7.3649,-7.3344,-7.3298,-7.3255,-7.3222,-7.3687,-7.3687,-7.3972,-7.3974,-7.3977]},{"header":{"parameterUnit":"m.s-1","parameterCategory":1,"la1":30.2991,"la2":30.254,"lo1":-89.0895,"lo2":-89.0444,"dy":0.0017,"dx":0.0017,"nx":28,"ny":28,"refTime":"2024-09-04T03:00:00:Z","depth":0,"parameterNumber":3,"parameterNumberName":"V-component_of_WINDS"},"data":[0,0,0,0,0,0,0,0,0,0,0,0,0,0,0,0,0,0,0,0,0,0,0,0,0,0,0,0,0,0,0,0,0,0,0,0,0,0,0,0,0,0,0,0,0,0,0,0,0,0,0,0,0,0,0,0,0,0,-2.2422,-2.2421,0,-2.242,-2.242,-2.242,-2.2369,-2.2368,-2.2367,-2.2365,-2.2366,-2.2367,-2.2368,0,0,0,0,0,0,0,0,0,0,0,0,0,-2.2381,-2.2382,-2.2422,-2.2421,-2.2421,-2.242,-2.242,-2.242,-2.2369,-2.2368,-2.2366,-2.2365,-2.2365,-2.2367,-2.2368,0,0,0,0,0,0,0,0,0,0,0,0,0,-2.2391,-2.2382,-2.2422,-2.2396,-2.2394,-2.242,-2.242,-2.242,-2.237,-2.2368,-2.2366,-2.2364,-2.2365,-2.2367,-2.2368,-2.242,0,0,-2.2374,-2.2375,0,0,0,0,0,0,0,0,-2.2391,-2.2393,-2.24,-2.2398,-2.2395,-2.2393,-2.2406,-2.242,-2.237,-2.2379,-2.2365,-2.2363,-2.2376,-2.2377,-2.2381,-2.242,-2.242,-2.2374,-2.2375,-2.2376,-2.2377,0,0,0,0,0,0,0,-2.239,-2.2392,-2.2421,-2.24,-2.2397,-2.2385,-2.2384,-2.2408,-2.2389,-2.2378,-2.2374,-2.2375,-2.2375,-2.238,-2.2381,-2.242,-2.2374,-2.2376,-2.2377,-2.2378,-2.2499,-2.2501,0,0,0,0,0,0,-2.2393,-2.2392,-2.2421,-2.2421,-2.2388,-2.2387,-2.2386,-2.2396,-2.2388,-2.2385,-2.2376,-2.2372,-2.2377,-2.2379,-2.2381,-2.2439,-2.2376,-2.2378,-2.2379,-2.2497,-2.25,-2.2502,0,0,0,0,0,0,-2.2392,-2.2396,-2.2421,-2.2405,-2.2408,-2.239,-2.2401,-2.2397,-2.2401,-2.2387,-2.2384,-2.2385,-2.2376,-2.2378,-2.241,-2.2439,-2.2379,-2.238,-2.2495,-2.2498,-2.2501,-2.2558,0,0,0,0,0,0,-2.2391,-2.2396,-2.2415,-2.2406,-2.2409,-2.245,-2.2403,-2.2398,-2.2405,-2.2399,-2.2394,-2.2392,-2.2375,-2.2407,-2.2412,-2.244,-2.2382,-2.2492,-2.2496,-2.25,-2.2553,-2.2563,-2.2571,0,0,0,0,0,-2.239,-2.2432,-2.2416,-2.242,-2.2432,-2.2452,-2.2453,-2.2433,-2.2407,-2.2426,-2.2417,-2.2392,-2.2435,-2.2411,-2.2416,-2.2445,-2.249,-2.2495,-2.2499,-2.255,-2.2561,-2.257,0,0,0,0,0,0,-2.2445,-2.243,-2.2413,-2.2453,-2.2454,-2.2443,-2.2467,-2.2445,-2.2454,-2.2449,-2.2423,-2.2422,-2.2458,-2.2455,-2.2429,-2.2494,-2.2458,-2.2464,-2.2495,-2.2505,-2.2514,-2.2514,-2.2383,0,0,0,0,0,-2.2462,-2.2479,-2.2465,-2.2502,-2.2503,-2.2485,-2.2493,-2.2477,-2.2477,-2.2477,-2.247,-2.2472,-2.2486,-2.2495,-2.2507,-2.2553,-2.2551,-2.2575,-2.2584,-2.2591,-2.2596,-2.2619,-2.263,-2.2517,-2.2517,-2.2517,0,0,-2.2497,-2.2491,-2.2503,-2.2513,-2.2512,-2.253,-2.2486,-2.2507,-2.252,-2.2481,-2.251,-2.2505,-2.2505,-2.2544,-2.256,-2.2542,-2.2627,-2.2597,-2.2603,-2.2604,-2.2625,-2.2636,-2.2645,-2.2521,-2.252,-2.252,0,0,-2.257,-2.2567,-2.2597,-2.2597,-2.2595,-2.2582,-2.259,-2.2582,-2.2577,-2.2606,-2.2576,-2.2592,-2.2616,-2.2617,-2.2621,-2.2693,-2.267,-2.2698,-2.2743,-2.2766,-2.2774,-2.2782,-2.2807,-2.2817,-2.2703,-2.2704,-2.2704,0,-2.2614,-2.2639,-2.2615,-2.2638,-2.2643,-2.2607,-2.2637,-2.2638,-2.2641,-2.2645,-2.2625,-2.2654,-2.2652,-2.2689,-2.2707,-2.2711,-2.2719,-2.2698,-2.2775,-2.2782,-2.2789,-2.2813,-2.2823,-2.2707,-2.2706,-2.2706,-2.2706,0,-2.2693,-2.2711,-2.2735,-2.2738,-2.2745,-2.2772,-2.2752,-2.2763,-2.2746,-2.2736,-2.2765,-2.2761,-2.2771,-2.2779,-2.2763,-2.2815,-2.2803,-2.2779,-2.2743,-2.2804,-2.2825,-2.2834,-2.2712,-2.271,-2.2709,-2.2709,0,0,-2.2801,-2.2789,-2.2798,-2.2798,-2.2794,-2.2807,-2.2832,-2.2841,-2.285,-2.2854,-2.2873,-2.2895,-2.2872,-2.2876,-2.286,-2.288,-2.2937,-2.2854,-2.2853,-2.2869,-2.2993,-2.301,-2.3021,-2.2922,-2.2923,-2.2925,-2.2992,0,-2.287,-2.2911,-2.289,-2.2933,-2.2949,-2.2915,-2.2937,-2.2936,-2.2927,-2.294,-2.293,-2.2945,-2.2915,-2.2917,-2.2935,-2.2926,-2.2961,-2.2921,-2.294,-2.2941,-2.294,-2.3033,-2.3051,-2.3115,-2.3001,-2.3002,-2.3003,0,-2.2957,-2.2962,-2.3007,-2.2998,-2.3004,-2.3024,-2.303,-2.3043,-2.3042,-2.3034,-2.3038,-2.3017,-2.3041,-2.3005,-2.3037,-2.301,-2.3016,-2.3013,-2.3015,-2.3015,-2.2975,-2.3035,-2.3135,-2.3145,-2.3017,-2.3016,-2.3015,0,-2.303,-2.3049,-2.3078,-2.3079,-2.307,-2.3084,-2.3081,-2.3078,-2.3084,-2.309,-2.3094,-2.3103,-2.3108,-2.3115,-2.3097,-2.3073,-2.3131,-2.3094,-2.3125,-2.3126,-2.3139,-2.3138,-2.3241,-2.3145,-2.3144,-2.3144,-2.3144,0,-2.3109,-2.3138,-2.311,-2.3128,-2.3159,-2.3134,-2.3166,-2.3159,-2.3157,-2.3172,-2.3144,-2.316,-2.3135,-2.3149,-2.3135,-2.3163,-2.3166,-2.316,-2.3156,-2.3162,-2.3163,-2.3166,-2.3161,-2.3147,-2.3146,-2.3146,-2.3145,0,-2.3196,-2.3178,-2.3207,-2.3196,-2.3194,-2.3217,-2.3207,-2.3223,-2.3212,-2.3233,-2.3236,-2.3219,-2.3234,-2.3216,-2.3229,-2.322,-2.3258,-2.3248,-2.3258,-2.3255,-2.3287,-2.3284,-2.3395,-2.3408,-2.3304,-2.3305,-2.3306,0,-2.3247,-2.3268,-2.3259,-2.3267,-2.3265,-2.3279,-2.3285,-2.3262,-2.327,-2.327,-2.3286,-2.3297,-2.3305,-2.333,-2.3319,-2.3329,-2.3318,-2.3356,-2.3319,-2.3325,-2.3318,-2.3316,-2.3318,-2.3363,-2.3365,-2.3366,-2.3367,0,-2.334,-2.333,-2.334,-2.3346,-2.3354,-2.3358,-2.3361,-2.3369,-2.3345,-2.3355,-2.3369,-2.3375,-2.3388,-2.34,-2.3406,-2.3403,-2.3381,-2.3378,-2.3386,-2.3392,-2.3397,-2.3394,-2.3278,-2.3376,-2.3375,-2.3374,-2.3374,-2.3373,-2.341,-2.3427,-2.3422,-2.3434,-2.3433,-2.3435,-2.3449,-2.344,-2.345,-2.3458,-2.3444,-2.3461,-2.3459,-2.3466,-2.3465,-2.3479,-2.3462,-2.3474,-2.3476,-2.3479,-2.3484,-2.3395,-2.348,-2.348,-2.348,-2.3479,-2.3479,0,-2.3501,-2.3496,-2.3507,-2.351,-2.3519,-2.3496,-2.3498,-2.3507,-2.3522,-2.3521,-2.3529,-2.3545,-2.3556,-2.3546,-2.3555,-2.3568,-2.3558,-2.3571,-2.357,-2.3569,-2.3498,-2.349,-2.3579,-2.3579,-2.3579,-2.3579,-2.3579,-2.3579,-2.3549,-2.3575,-2.3565,-2.3591,-2.3586,-2.3602,-2.3604,-2.3606,-2.3605,-2.3624,-2.3633,-2.3626,-2.3621,-2.363,-2.3639,-2.3636,-2.364,-2.3657,-2.365,-2.3584,-2.3574,-2.3565,-2.3557,-2.3658,-2.3659,-2.372,-2.372,-2.3721]}]]